Location: Rounton
(54.4000°N, 1.3500°W)
Time: 14:47:15
(UTC+00:00)

Altair - Pass Details

Date: 02 December 2021
Orbit: 1501 x 1683 km, 47.2° (Epoch: 20 January)

Event Time Altitude Azimuth Distance (km) Brightness Sun altitude
Rises 14:08:07 0° 178° (S) 4,773 11.2 8.4°
Reaches altitude 10° 14:13:16 10° 156° (SSE) 3,753 10.1 8.0°
Maximum altitude 14:17:32 14° 128° (SE) 3,413 9.5 7.7°
Drops below altitude 10° 14:21:46 10° 100° (E) 3,702 9.3 7.3°
Sets 14:26:44 0° 78° (ENE) 4,663 9.6 6.9°
